Weather History for Dillon, MT

Change the Weather History Date:

Thursday, April 11, 2013

  Actual Average Record
Temperature  
Mean Temperature 42 °F 40 °F  
Max Temperature 55 °F 53 °F 74 °F (1988)
Min Temperature 28 °F 28 °F 8 °F (1953)
Degree Days  
Heating Degree Days 23    
Month to date heating degree days 255  
Since 1 July heating degree days 6586  
Cooling Degree Days 0    
Month to date cooling degree days 0  
Year to date cooling degree days 0  
Moisture  
Dew Point 19 °F    
Average Humidity 43    
Maximum Humidity 70    
Minimum Humidity 16    
Precipitation  
Precipitation 0.00 in 0.03 in 0.27 in (1991)
Month to date precipitation 0.11 0.35  
Year to date precipitation 0.51 1.43  
Snow  
Snow 0.00 in - - ()
Snow Depth 0.00 in    
Sea Level Pressure  
Sea Level Pressure 29.89 in    
Wind  
Wind Speed 8 mph (WSW)    
Max Wind Speed 21 mph    
Max Gust Speed 24 mph    
Visibility 10 miles    
Events      
T = Trace of Precipitation, MM = Missing Value Source: NWS Daily Summary

Daily Weather History Graph

Daily Weather History Graph

Search for Another Location

Airport:

Trip Planner

Search our weather history database for the weather conditions in past years. The results will help you decide how hot, cold, wet, or windy it might be!

Date:

Astronomy

Apr. 11, 2013 Rise Set
Actual Time 6:51 AM MDT 8:11 PM MDT
Civil Twilight 6:21 AM MDT 8:42 PM MDT
Nautical Twilight 5:44 AM MDT 9:18 PM MDT
Astronomical Twilight 5:05 AM MDT 9:58 PM MDT
Moon 7:21 AM MDT (4/11) 9:55 PM MDT (4/11)
Length of Visible Light 14h 20m
Length of Day
13h 19m
New Moon, 2% of the Moon is Illuminated
Apr 11
New Moon
Apr 18
First Quarter
Apr 25
Full
May 2
Last Quarter
May 9
New

Hourly Weather History & Observations

Time (MDT) Temp. Windchill Dew Point Humidity Pressure Visibility Wind Dir Wind Speed Gust Speed Precip Events Conditions
12:53 AM 37.0 °F 31.0 °F 27.0 °F 67% 29.86 in 10.0 mi South 8.1 mph - N/A   Clear
1:53 AM 35.1 °F 27.4 °F 26.1 °F 70% 29.88 in 10.0 mi SSW 10.4 mph - N/A   Partly Cloudy
2:53 AM 35.1 °F 28.6 °F 26.1 °F 70% 29.87 in 10.0 mi SSW 8.1 mph - N/A   Clear
3:53 AM 36.0 °F 30.3 °F 24.1 °F 62% 29.85 in 10.0 mi West 6.9 mph - N/A   Mostly Cloudy
4:53 AM 35.1 °F 29.3 °F 23.0 °F 61% 29.87 in 10.0 mi SSW 6.9 mph - N/A   Clear
5:53 AM 33.1 °F 25.5 °F 23.0 °F 66% 29.88 in 10.0 mi SSE 9.2 mph - N/A   Clear
6:53 AM 33.1 °F 26.9 °F 23.0 °F 66% 29.90 in 10.0 mi South 6.9 mph - N/A   Clear
7:53 AM 34.0 °F 27.2 °F 25.0 °F 70% 29.95 in 10.0 mi South 8.1 mph - N/A   Clear
8:53 AM 39.9 °F 37.8 °F 27.0 °F 60% 29.94 in 10.0 mi SSW 3.5 mph - N/A   Clear
9:53 AM 45.0 °F 41.8 °F 23.0 °F 42% 29.93 in 10.0 mi ENE 5.8 mph - N/A   Clear
11:53 AM 46.9 °F - 19.9 °F 34% 29.91 in 10.0 mi WSW 5.8 mph - N/A   Partly Cloudy
12:53 PM 50.0 °F - 19.9 °F 31% 29.89 in 10.0 mi Variable 4.6 mph - N/A   Clear
1:53 PM 52.0 °F - 19.0 °F 27% 29.86 in 10.0 mi Variable 5.8 mph - N/A   Clear
2:53 PM 55.0 °F - 16.0 °F 22% 29.83 in 10.0 mi NW 10.4 mph - N/A   Clear
3:53 PM 51.1 °F - 12.0 °F 21% 29.84 in 10.0 mi WNW 11.5 mph - N/A   Clear
4:53 PM 51.1 °F - 7.0 °F 17% 29.84 in 10.0 mi West 13.8 mph - N/A   Clear
5:53 PM 50.0 °F - 9.0 °F 19% 29.86 in 10.0 mi WNW 10.4 mph - N/A   Scattered Clouds
6:53 PM 48.0 °F - 9.0 °F 21% 29.88 in 10.0 mi NW 16.1 mph - N/A   Overcast
7:53 PM 46.0 °F 41.0 °F 12.9 °F 26% 29.89 in 10.0 mi NNW 10.4 mph - N/A   Mostly Cloudy
8:53 PM 42.1 °F 34.9 °F 15.1 °F 34% 29.90 in 10.0 mi NNW 13.8 mph - N/A   Overcast
9:53 PM 37.0 °F 30.4 °F 17.1 °F 44% 29.93 in 10.0 mi NNW 9.2 mph - N/A   Scattered Clouds
10:53 PM 34.0 °F 28.0 °F 17.1 °F 50% 29.96 in 10.0 mi North 6.9 mph - N/A   Clear
11:53 PM 32.0 °F - 16.0 °F 52% 29.97 in 10.0 mi Calm Calm - N/A   Clear